STARLINK-5076 (55401 NORAD) Tracking and Keplerian Element Data

This shows tracking and keplerian element data for the satellite.

Feedback or suggestion? Click here.




ElementValue
Catalog55401
NameSTARLINK-5076
Epoch Orbit1518
Epoch Day127.12859518
Epoch Year2023
RAAN181.3472
Inclination69.9981
Eccentricity0.0002864
Argument of Perigee271.8542
Mean Anonmoly88.2326
Mean Motion15.69926832
Decay Rate1.676E-05
L11 55401U 23014L 23127.12859518 .00001676 00000+0 15700-4 0 9995
L22 55401 69.9981 181.3472 0002864 271.8542 88.2326 15.69926832 15189



Live tracking and technical data element details for STARLINK-5076 (NORAD 55401). STARLINK-5076 can be tracked NOW for your location showing map with azimuth and elevation plus other details from your city location.







IsCatalogInMostPopularTable: catalog: 55401, numindb: 1
Update: records affected: 1



GetName: 55401 STARLINK-5076

Hit Count: updated at: Mon, 05 Jun 2023 21:00:32 GMT